Kuiper-00053

operational
NORAD ID: 64513 Int'l Des: 2025-134 Owner: KUIP Country: US Constellation: kuiper
LEOCIRCULAR

Kuiper-00053について

説明を読み込み中...

リアルタイム位置

3D地球を読み込み中...

次回通過

高度履歴

Altitude vs Time

uPlot chart will show altitude changes over time

軌道要素

1 64513U 25134P 25341.00002315 -.00026410 00000-0 -34407-2 0 9995
2 64513 51.9014 272.9679 0001676 46.4691 2.6263 14.80030969 2127
Epoch: Dec 7, 2025 • Age: 7 hours

現在のステータス

高度 630.0 km
速度 7.55 km/s
衛星直下点 21.31°N, 106.56°W
打ち上げ日 Jun 23, 2025
運用期間 0.4 years
タイプ internet

技術仕様

分類 Payload
質量 490.00 kg
乾燥質量 490.00 kg
総質量 490.00 kg
長さ 1.80 m
直径 0.70 m
スパン 5.00 m
形状 Box + 2 pan
製造者 KUIP
バスタイプ Kuiper
フェーズステータス In Orbit
所有者/国 KUIP/US

大規模コンステレーション

Loading constellations...